Time,TemperatureF,DewpointF,PressureIn,WindDirection,WindDirectionDegrees,WindSpeedMPH,WindSpeedGustMPH,Humidity,HourlyPrecipIn,Conditions,Clouds,dailyrainin,SoftwareType,DateUTC
2013-04-05 00:00:00,37.4,37.4,20.00,South,183,0.0,10.0,100,0.00,,---,0.00,VWS V13.00,2013-04-05 04:00:00,
2013-04-05 00:30:00,37.3,37.3,19.99,SSW,193,3.0,10.0,100,0.00,,---,0.00,VWS V13.00,2013-04-05 04:30:00,
2013-04-05 01:00:00,36.6,36.6,19.99,SSW,192,2.0,8.0,100,0.00,,---,0.00,VWS V13.00,2013-04-05 05:00:00,
2013-04-05 01:30:00,36.8,36.8,20.00,South,180,8.0,13.0,100,0.00,,---,0.00,VWS V13.00,2013-04-05 05:30:00,
2013-04-05 02:00:00,36.5,36.5,20.00,South,181,3.0,11.0,100,0.00,,---,0.00,VWS V13.00,2013-04-05 06:00:00,
2013-04-05 02:30:00,36.1,36.1,19.99,SSW,194,2.0,10.0,100,0.00,,---,0.00,VWS V13.00,2013-04-05 06:30:00,
2013-04-05 03:00:00,35.6,35.6,19.99,South,191,0.0,9.0,100,0.00,,---,0.00,VWS V13.00,2013-04-05 07:00:00,
2013-04-05 03:30:00,35.9,35.9,19.99,SSE,168,3.0,11.0,100,0.00,,---,0.00,VWS V13.00,2013-04-05 07:30:00,
2013-04-05 04:00:00,35.4,35.4,19.99,SE,138,3.0,7.0,100,0.00,,---,0.00,VWS V13.00,2013-04-05 08:00:00,
2013-04-05 05:30:00,30.4,30.4,19.99,ENE,74,0.0,4.0,100,0.00,,---,0.00,VWS V13.00,2013-04-05 09:30:00,
2013-04-05 06:00:00,29.2,29.2,19.99,ENE,73,2.0,4.0,100,0.00,,---,0.00,VWS V13.00,2013-04-05 10:00:00,
2013-04-05 06:30:00,29.3,29.3,20.00,ESE,120,0.0,6.0,100,0.00,,---,0.00,VWS V13.00,2013-04-05 10:30:00,
2013-04-05 07:00:00,28.7,28.7,19.99,SE,125,0.0,9.0,100,0.00,,---,0.00,VWS V13.00,2013-04-05 11:00:00,
2013-04-05 07:30:00,30.4,30.4,19.99,SE,130,0.0,8.0,100,0.00,,---,0.00,VWS V13.00,2013-04-05 11:30:00,
2013-04-05 08:00:00,30.9,30.9,19.99,SE,130,0.0,2.0,100,0.00,,---,0.00,VWS V13.00,2013-04-05 12:00:00,
2013-04-05 08:30:00,33.3,33.3,20.00,SE,130,0.0,3.0,100,0.00,,---,0.00,VWS V13.00,2013-04-05 12:30:00,
2013-04-05 09:00:00,34.2,34.2,19.99,SE,129,1.0,4.0,100,0.00,,---,0.00,VWS V13.00,2013-04-05 13:00:00,
2013-04-05 09:30:00,36.3,36.3,19.99,SE,129,0.0,3.0,100,0.00,,---,0.00,VWS V13.00,2013-04-05 13:30:00,
2013-04-05 10:00:00,38.8,38.8,19.99,SE,131,0.0,6.0,100,0.00,,---,0.00,VWS V13.00,2013-04-05 14:00:00,
2013-04-05 10:30:00,41.2,41.2,19.99,SE,142,1.0,6.0,100,0.00,,---,0.00,VWS V13.00,2013-04-05 14:30:00,
2013-04-05 11:00:00,42.6,42.6,19.99,West,274,1.0,11.0,100,0.00,,---,0.00,VWS V13.00,2013-04-05 15:00:00,
2013-04-05 11:30:00,42.4,42.4,19.99,WNW,294,5.0,16.0,100,0.00,,---,0.00,VWS V13.00,2013-04-05 15:30:00,
2013-04-05 12:00:00,42.4,42.4,19.99,WNW,299,13.0,16.0,100,0.00,,---,0.00,VWS V13.00,2013-04-05 16:00:00,
2013-04-05 12:30:00,43.1,43.1,20.00,NW,315,6.0,18.0,100,0.00,,---,0.00,VWS V13.00,2013-04-05 16:30:00,
2013-04-05 13:30:00,44.1,44.1,19.99,West,281,3.0,20.0,100,0.00,,---,0.00,VWS V13.00,2013-04-05 17:30:00,
2013-04-05 14:00:00,44.3,44.3,19.99,NW,324,8.0,17.0,100,0.00,,---,0.00,VWS V13.00,2013-04-05 18:00:00,
2013-04-05 14:30:00,45.2,45.2,19.99,NNW,336,8.0,16.0,100,0.00,,---,0.00,VWS V13.00,2013-04-05 18:30:00,
2013-04-05 15:00:00,45.6,45.6,20.00,NNW,336,8.0,19.0,100,0.00,,---,0.00,VWS V13.00,2013-04-05 19:00:00,
2013-04-05 15:30:00,46.9,46.9,19.99,North,356,4.0,16.0,100,0.00,,---,0.00,VWS V13.00,2013-04-05 19:30:00,
2013-04-05 16:00:00,44.2,44.2,19.99,WNW,303,9.0,15.0,100,0.00,,---,0.00,VWS V13.00,2013-04-05 20:00:00,
2013-04-05 16:30:00,45.1,45.1,19.99,West,277,7.0,17.0,100,0.00,,---,0.00,VWS V13.00,2013-04-05 20:30:00,
2013-04-05 17:00:00,43.3,43.3,20.00,NNW,348,3.0,17.0,100,0.00,,---,0.00,VWS V13.00,2013-04-05 21:00:00,
2013-04-05 17:30:00,40.9,40.9,19.99,North,355,10.0,15.0,100,0.00,,---,0.00,VWS V13.00,2013-04-05 21:30:00,
2013-04-05 18:00:00,38.7,38.7,20.00,North,4,11.0,17.0,100,0.00,,---,0.00,VWS V13.00,2013-04-05 22:00:00,
2013-04-05 18:30:00,35.6,35.6,19.99,North,351,12.0,17.0,100,0.00,,---,0.00,VWS V13.00,2013-04-05 22:30:00,
2013-04-05 19:00:00,33.9,33.9,19.99,North,0,7.0,15.0,100,0.00,,---,0.00,VWS V13.00,2013-04-05 23:00:00,
2013-04-05 19:30:00,33.3,33.3,20.00,North,349,2.0,8.0,100,0.00,,---,0.00,VWS V13.00,2013-04-05 23:30:00,
2013-04-05 20:00:00,32.2,32.2,19.99,WNW,285,7.0,9.0,100,0.00,,---,0.00,VWS V13.00,2013-04-06 00:00:00,
2013-04-05 20:30:00,31.7,31.7,19.99,NW,308,3.0,12.0,100,0.00,,---,0.00,VWS V13.00,2013-04-06 00:30:00,
2013-04-05 21:00:00,31.3,31.3,19.99,NNW,344,0.0,8.0,100,0.00,,---,0.00,VWS V13.00,2013-04-06 01:00:00,
2013-04-05 21:30:00,30.4,30.4,20.00,NW,317,6.0,12.0,100,0.00,,---,0.00,VWS V13.00,2013-04-06 01:30:00,
2013-04-05 22:00:00,30.0,30.0,19.99,NW,308,0.0,9.0,100,0.00,,---,0.00,VWS V13.00,2013-04-06 02:00:00,
2013-04-05 22:30:00,29.2,29.2,19.99,NW,318,2.0,8.0,100,0.00,,---,0.00,VWS V13.00,2013-04-06 02:30:00,
2013-04-05 23:00:00,28.7,28.7,19.99,WNW,288,4.0,8.0,100,0.00,,---,0.00,VWS V13.00,2013-04-06 03:00:00,
2013-04-05 23:30:00,28.2,28.2,19.99,NNW,330,9.0,17.0,100,0.00,,---,0.00,VWS V13.00,2013-04-06 03:30:00,